Sunflower IVory — JI3634 — position and weather

sailwx.info

Track history (hours):
 
Tides and Currents Weather Stations Pressure Air Temp Water Temp Dewpoint Dewpoint Depression Visibility Wind Speed Wind Dir Waves Ship Positions

Sunflower IVory

Last reported at 2017-Nov-23 11:36 UTC. Time now 2017-Nov-24 20:41 UTC.
Position N 34°35' E 134°51'.

Length 153 m; draft 5.7 m.

Type: Ship. MMSI: 431300686.

Date/timePositionNaut miles runAvg speedWind from/ knotsBaromVisibWave heightAir tempDewpointWater temp
2017-Nov-23 11:36N 34°35' E 134°51'220.6
2017-Nov-23 11:30N 34°36' E 134°54'918.2
2017-Nov-23 11:00N 34°36' E 135°05'1020.0
2017-Nov-23 10:30N 34°37' E 135°17'713.4
2017-Nov-23 10:00N 34°38' E 135°25'0 0.0
2017-Nov-23 09:30N 34°38' E 135°25'0 0.0
2017-Nov-23 08:42N 34°38' E 135°25'0 0.0
2017-Nov-23 08:30N 34°38' E 135°25'0 0.0
2017-Nov-23 08:00N 34°38' E 135°25'0 0.0
2017-Nov-23 07:30N 34°38' E 135°25'0 0.0
2017-Nov-23 07:00N 34°38' E 135°25'0 0.0
2017-Nov-23 06:30N 34°38' E 135°25'0 0.0
2017-Nov-23 06:00N 34°38' E 135°25'0 0.0
2017-Nov-23 05:30N 34°38' E 135°25'0 0.0
2017-Nov-23 05:00N 34°38' E 135°25'0 0.0
2017-Nov-23 04:30N 34°38' E 135°25'0 0.0
2017-Nov-23 04:00N 34°38' E 135°25'0 0.0
2017-Nov-23 03:24N 34°38' E 135°25'0 0.0
2017-Nov-23 03:00N 34°38' E 135°25'0 0.0
2017-Nov-23 02:30N 34°38' E 135°25'0 0.0
2017-Nov-23 02:00N 34°38' E 135°25'0 0.0
2017-Nov-23 01:24N 34°38' E 135°25'0 0.0
2017-Nov-23 00:54N 34°38' E 135°25'0 0.0
2017-Nov-23 00:30N 34°38' E 135°25'0 0.0
2017-Nov-23 00:00N 34°38' E 135°25'0 0.0
2017-Nov-22 23:30N 34°38' E 135°25'0 0.0
2017-Nov-22 23:00N 34°38' E 135°25'0 0.0
2017-Nov-22 22:24N 34°38' E 135°25'0 0.0
2017-Nov-22 21:54N 34°38' E 135°25'0 0.0
2017-Nov-22 21:30N 34°38' E 135°25'2 4.0
2017-Nov-22 21:00N 34°38' E 135°22'919.2
2017-Nov-22 20:30N 34°35' E 135°11'1019.1
2017-Nov-22 20:00N 34°37' E 134°60'  
2017-Nov-19 11:48N 34°33' E 134°45'722.4
2017-Nov-19 11:30N 34°35' E 134°53'1020.4
2017-Nov-19 11:00N 34°35' E 135°05'1020.4
2017-Nov-19 10:30N 34°36' E 135°17'612.4
2017-Nov-19 10:00N 34°38' E 135°25'0 0.0
2017-Nov-19 09:29N 34°38' E 135°25'0 0.0
2017-Nov-19 08:59N 34°38' E 135°25'0 0.0
2017-Nov-19 08:29N 34°38' E 135°25'0 0.0
2017-Nov-19 07:53N 34°38' E 135°25'0 0.0
2017-Nov-19 07:17N 34°38' E 135°25'0 0.0
2017-Nov-19 06:59N 34°38' E 135°25'0 0.0
2017-Nov-19 06:29N 34°38' E 135°25'0 0.0
2017-Nov-19 05:53N 34°38' E 135°25'0 0.0
2017-Nov-19 05:29N 34°38' E 135°25'0 0.0
2017-Nov-19 04:59N 34°38' E 135°25'0 0.0
2017-Nov-19 04:29N 34°38' E 135°25'0 0.0
2017-Nov-19 03:59N 34°38' E 135°25'0 0.0
2017-Nov-19 03:29N 34°38' E 135°25'0 0.0
2017-Nov-19 02:59N 34°38' E 135°25'0 0.0
2017-Nov-19 02:29N 34°38' E 135°25'0 0.0
2017-Nov-19 01:59N 34°38' E 135°25'0 0.0
2017-Nov-19 01:29N 34°38' E 135°25'0 0.0
2017-Nov-19 00:53N 34°38' E 135°25'0 0.0
2017-Nov-19 00:23N 34°38' E 135°25'0 0.0
2017-Nov-18 23:59N 34°38' E 135°25'0 0.0
2017-Nov-18 23:29N 34°38' E 135°25'0 0.0
2017-Nov-18 22:59N 34°38' E 135°25'0 0.0
2017-Nov-18 22:30N 34°38' E 135°25'5 9.7
2017-Nov-18 22:00N 34°35' E 135°20'918.1
2017-Nov-18 21:30N 34°35' E 135°09'916.8
2017-Nov-18 21:00N 34°37' E 134°59'917.7
2017-Nov-18 20:28N 34°33' E 134°49'2 0.1
2017-Nov-17 12:34N 34°34' E 134°47'221.6
2017-Nov-17 12:27N 34°35' E 134°50'1021.2
2017-Nov-17 12:00N 34°37' E 135°01'1020.0
2017-Nov-17 11:30N 34°36' E 135°13'918.6
2017-Nov-17 11:01N 34°38' E 135°24'1 1.0
2017-Nov-17 10:25N 34°38' E 135°25'0 0.0
2017-Nov-17 09:55N 34°38' E 135°25'0 0.0
2017-Nov-17 09:19N 34°38' E 135°25'0 0.0
2017-Nov-17 08:55N 34°38' E 135°25'0 0.0
2017-Nov-17 08:25N 34°38' E 135°25'0 0.0
2017-Nov-17 07:55N 34°38' E 135°25'0 0.0
2017-Nov-17 07:25N 34°38' E 135°25'0 0.0
2017-Nov-17 06:55N 34°38' E 135°25'0 0.0
2017-Nov-17 06:25N 34°38' E 135°25'0 0.0
2017-Nov-17 05:55N 34°38' E 135°25'0 0.0
2017-Nov-17 05:25N 34°38' E 135°25'0 0.0
2017-Nov-17 04:55N 34°38' E 135°25'0 0.0
2017-Nov-17 04:19N 34°38' E 135°25'0 0.0
2017-Nov-17 03:49N 34°38' E 135°25'0 0.0
2017-Nov-17 03:25N 34°38' E 135°25'0 0.0
2017-Nov-17 02:55N 34°38' E 135°25'0 0.0
2017-Nov-17 02:25N 34°38' E 135°25'0 0.0
2017-Nov-17 01:01N 34°38' E 135°25'0 0.0
2017-Nov-17 00:55N 34°38' E 135°25'0 0.0
2017-Nov-17 00:25N 34°38' E 135°25'0 0.0
2017-Nov-16 23:55N 34°38' E 135°25'0 0.0
2017-Nov-16 23:25N 34°38' E 135°25'0 0.0
2017-Nov-16 22:55N 34°38' E 135°25'0 0.0
2017-Nov-16 22:19N 34°38' E 135°25'0 0.0
2017-Nov-16 21:49N 34°38' E 135°25'0 0.0
2017-Nov-16 21:31N 34°38' E 135°25'5 9.3
2017-Nov-16 21:00N 34°36' E 135°19'1020.2
2017-Nov-16 20:30N 34°34' E 135°08'917.0
2017-Nov-16 20:00N 34°37' E 134°58'11 0.3
2017-Nov-15 11:52N 34°33' E 134°46'820.4
2017-Nov-15 11:29N 34°36' E 134°55'919.0
2017-Nov-15 11:00N 34°36' E 135°05'1019.7
2017-Nov-15 10:30N 34°37' E 135°17'612.3
2017-Nov-15 10:00N 34°38' E 135°25'0 0.0
2017-Nov-15 09:29N 34°38' E 135°25'0 0.0
2017-Nov-15 08:59N 34°38' E 135°25'0 0.0
2017-Nov-15 08:29N 34°38' E 135°25'0 0.0
2017-Nov-15 07:53N 34°38' E 135°25'0 0.0
2017-Nov-15 07:23N 34°38' E 135°25'0 0.0
2017-Nov-15 06:53N 34°38' E 135°25'0 0.0
2017-Nov-15 06:23N 34°38' E 135°25'0 0.0
2017-Nov-15 05:47N 34°38' E 135°25'0 0.0
2017-Nov-15 05:29N 34°38' E 135°25'0 0.0
2017-Nov-15 04:59N 34°38' E 135°25'0 0.0
2017-Nov-15 04:29N 34°38' E 135°25'0 0.0
2017-Nov-15 03:47N 34°38' E 135°25'0 0.0
2017-Nov-15 03:29N 34°38' E 135°25'0 0.0
2017-Nov-15 02:59N 34°38' E 135°25'0 0.0
2017-Nov-15 02:29N 34°38' E 135°25'0 0.0
2017-Nov-15 01:47N 34°38' E 135°25'0 0.0
2017-Nov-15 01:29N 34°38' E 135°25'0 0.0
2017-Nov-15 00:59N 34°38' E 135°25'0 0.0
2017-Nov-15 00:29N 34°38' E 135°25'0 0.0
2017-Nov-14 23:59N 34°38' E 135°25'0 0.0
2017-Nov-14 23:23N 34°38' E 135°25'0 0.0
2017-Nov-14 23:00N 34°38' E 135°25'0 0.0
2017-Nov-14 22:30N 34°38' E 135°25'0 0.0
2017-Nov-14 22:00N 34°38' E 135°25'0 0.9
2017-Nov-14 21:31N 34°38' E 135°24'917.8
2017-Nov-14 21:00N 34°35' E 135°14'1019.0
2017-Nov-14 20:30N 34°36' E 135°02'816.2
2017-Nov-14 20:00N 34°35' E 134°53'  
Track history (hours):
 
Tides and Currents Weather Stations Pressure Air Temp Water Temp Dewpoint Dewpoint Depression Visibility Wind Speed Wind Dir Waves Ship Positions

Sunflower IVory

Last reported at 2017-Nov-23 11:36 UTC. Time now 2017-Nov-24 20:41 UTC.
Position N 34°35' E 134°51'.

Length 153 m; draft 5.7 m.

Type: Ship. MMSI: 431300686.

Date/timePositionNaut miles runAvg speedWind from/ knotsBaromVisibWave heightAir tempDewpointWater temp
2017-Nov-23 11:36N 34°35' E 134°51'220.6
2017-Nov-23 11:30N 34°36' E 134°54'918.2
2017-Nov-23 11:00N 34°36' E 135°05'1020.0
2017-Nov-23 10:30N 34°37' E 135°17'713.4
2017-Nov-23 10:00N 34°38' E 135°25'0 0.0
2017-Nov-23 09:30N 34°38' E 135°25'0 0.0
2017-Nov-23 08:42N 34°38' E 135°25'0 0.0
2017-Nov-23 08:30N 34°38' E 135°25'0 0.0
2017-Nov-23 08:00N 34°38' E 135°25'0 0.0
2017-Nov-23 07:30N 34°38' E 135°25'0 0.0
2017-Nov-23 07:00N 34°38' E 135°25'0 0.0
2017-Nov-23 06:30N 34°38' E 135°25'0 0.0
2017-Nov-23 06:00N 34°38' E 135°25'0 0.0
2017-Nov-23 05:30N 34°38' E 135°25'0 0.0
2017-Nov-23 05:00N 34°38' E 135°25'0 0.0
2017-Nov-23 04:30N 34°38' E 135°25'0 0.0
2017-Nov-23 04:00N 34°38' E 135°25'0 0.0
2017-Nov-23 03:24N 34°38' E 135°25'0 0.0
2017-Nov-23 03:00N 34°38' E 135°25'0 0.0
2017-Nov-23 02:30N 34°38' E 135°25'0 0.0
2017-Nov-23 02:00N 34°38' E 135°25'0 0.0
2017-Nov-23 01:24N 34°38' E 135°25'0 0.0
2017-Nov-23 00:54N 34°38' E 135°25'0 0.0
2017-Nov-23 00:30N 34°38' E 135°25'0 0.0
2017-Nov-23 00:00N 34°38' E 135°25'0 0.0
2017-Nov-22 23:30N 34°38' E 135°25'0 0.0
2017-Nov-22 23:00N 34°38' E 135°25'0 0.0
2017-Nov-22 22:24N 34°38' E 135°25'0 0.0
2017-Nov-22 21:54N 34°38' E 135°25'0 0.0
2017-Nov-22 21:30N 34°38' E 135°25'2 4.0
2017-Nov-22 21:00N 34°38' E 135°22'919.2
2017-Nov-22 20:30N 34°35' E 135°11'1019.1
2017-Nov-22 20:00N 34°37' E 134°60'  
2017-Nov-19 11:48N 34°33' E 134°45'722.4
2017-Nov-19 11:30N 34°35' E 134°53'1020.4
2017-Nov-19 11:00N 34°35' E 135°05'1020.4
2017-Nov-19 10:30N 34°36' E 135°17'612.4
2017-Nov-19 10:00N 34°38' E 135°25'0 0.0
2017-Nov-19 09:29N 34°38' E 135°25'0 0.0
2017-Nov-19 08:59N 34°38' E 135°25'0 0.0
2017-Nov-19 08:29N 34°38' E 135°25'0 0.0
2017-Nov-19 07:53N 34°38' E 135°25'0 0.0
2017-Nov-19 07:17N 34°38' E 135°25'0 0.0
2017-Nov-19 06:59N 34°38' E 135°25'0 0.0
2017-Nov-19 06:29N 34°38' E 135°25'0 0.0
2017-Nov-19 05:53N 34°38' E 135°25'0 0.0
2017-Nov-19 05:29N 34°38' E 135°25'0 0.0
2017-Nov-19 04:59N 34°38' E 135°25'0 0.0
2017-Nov-19 04:29N 34°38' E 135°25'0 0.0
2017-Nov-19 03:59N 34°38' E 135°25'0 0.0
2017-Nov-19 03:29N 34°38' E 135°25'0 0.0
2017-Nov-19 02:59N 34°38' E 135°25'0 0.0
2017-Nov-19 02:29N 34°38' E 135°25'0 0.0
2017-Nov-19 01:59N 34°38' E 135°25'0 0.0
2017-Nov-19 01:29N 34°38' E 135°25'0 0.0
2017-Nov-19 00:53N 34°38' E 135°25'0 0.0
2017-Nov-19 00:23N 34°38' E 135°25'0 0.0
2017-Nov-18 23:59N 34°38' E 135°25'0 0.0
2017-Nov-18 23:29N 34°38' E 135°25'0 0.0
2017-Nov-18 22:59N 34°38' E 135°25'0 0.0
2017-Nov-18 22:30N 34°38' E 135°25'5 9.7
2017-Nov-18 22:00N 34°35' E 135°20'918.1
2017-Nov-18 21:30N 34°35' E 135°09'916.8
2017-Nov-18 21:00N 34°37' E 134°59'917.7
2017-Nov-18 20:28N 34°33' E 134°49'2 0.1
2017-Nov-17 12:34N 34°34' E 134°47'221.6
2017-Nov-17 12:27N 34°35' E 134°50'1021.2
2017-Nov-17 12:00N 34°37' E 135°01'1020.0
2017-Nov-17 11:30N 34°36' E 135°13'918.6
2017-Nov-17 11:01N 34°38' E 135°24'1 1.0
2017-Nov-17 10:25N 34°38' E 135°25'0 0.0
2017-Nov-17 09:55N 34°38' E 135°25'0 0.0
2017-Nov-17 09:19N 34°38' E 135°25'0 0.0
2017-Nov-17 08:55N 34°38' E 135°25'0 0.0
2017-Nov-17 08:25N 34°38' E 135°25'0 0.0
2017-Nov-17 07:55N 34°38' E 135°25'0 0.0
2017-Nov-17 07:25N 34°38' E 135°25'0 0.0
2017-Nov-17 06:55N 34°38' E 135°25'0 0.0
2017-Nov-17 06:25N 34°38' E 135°25'0 0.0
2017-Nov-17 05:55N 34°38' E 135°25'0 0.0
2017-Nov-17 05:25N 34°38' E 135°25'0 0.0
2017-Nov-17 04:55N 34°38' E 135°25'0 0.0
2017-Nov-17 04:19N 34°38' E 135°25'0 0.0
2017-Nov-17 03:49N 34°38' E 135°25'0 0.0
2017-Nov-17 03:25N 34°38' E 135°25'0 0.0
2017-Nov-17 02:55N 34°38' E 135°25'0 0.0
2017-Nov-17 02:25N 34°38' E 135°25'0 0.0
2017-Nov-17 01:01N 34°38' E 135°25'0 0.0
2017-Nov-17 00:55N 34°38' E 135°25'0 0.0
2017-Nov-17 00:25N 34°38' E 135°25'0 0.0
2017-Nov-16 23:55N 34°38' E 135°25'0 0.0
2017-Nov-16 23:25N 34°38' E 135°25'0 0.0
2017-Nov-16 22:55N 34°38' E 135°25'0 0.0
2017-Nov-16 22:19N 34°38' E 135°25'0 0.0
2017-Nov-16 21:49N 34°38' E 135°25'0 0.0
2017-Nov-16 21:31N 34°38' E 135°25'5 9.3
2017-Nov-16 21:00N 34°36' E 135°19'1020.2
2017-Nov-16 20:30N 34°34' E 135°08'917.0
2017-Nov-16 20:00N 34°37' E 134°58'11 0.3
2017-Nov-15 11:52N 34°33' E 134°46'820.4
2017-Nov-15 11:29N 34°36' E 134°55'919.0
2017-Nov-15 11:00N 34°36' E 135°05'1019.7
2017-Nov-15 10:30N 34°37' E 135°17'612.3
2017-Nov-15 10:00N 34°38' E 135°25'0 0.0
2017-Nov-15 09:29N 34°38' E 135°25'0 0.0
2017-Nov-15 08:59N 34°38' E 135°25'0 0.0
2017-Nov-15 08:29N 34°38' E 135°25'0 0.0
2017-Nov-15 07:53N 34°38' E 135°25'0 0.0
2017-Nov-15 07:23N 34°38' E 135°25'0 0.0
2017-Nov-15 06:53N 34°38' E 135°25'0 0.0
2017-Nov-15 06:23N 34°38' E 135°25'0 0.0
2017-Nov-15 05:47N 34°38' E 135°25'0 0.0
2017-Nov-15 05:29N 34°38' E 135°25'0 0.0
2017-Nov-15 04:59N 34°38' E 135°25'0 0.0
2017-Nov-15 04:29N 34°38' E 135°25'0 0.0
2017-Nov-15 03:47N 34°38' E 135°25'0 0.0
2017-Nov-15 03:29N 34°38' E 135°25'0 0.0
2017-Nov-15 02:59N 34°38' E 135°25'0 0.0
2017-Nov-15 02:29N 34°38' E 135°25'0 0.0
2017-Nov-15 01:47N 34°38' E 135°25'0 0.0
2017-Nov-15 01:29N 34°38' E 135°25'0 0.0
2017-Nov-15 00:59N 34°38' E 135°25'0 0.0
2017-Nov-15 00:29N 34°38' E 135°25'0 0.0
2017-Nov-14 23:59N 34°38' E 135°25'0 0.0
2017-Nov-14 23:23N 34°38' E 135°25'0 0.0
2017-Nov-14 23:00N 34°38' E 135°25'0 0.0
2017-Nov-14 22:30N 34°38' E 135°25'0 0.0
2017-Nov-14 22:00N 34°38' E 135°25'0 0.9
2017-Nov-14 21:31N 34°38' E 135°24'917.8
2017-Nov-14 21:00N 34°35' E 135°14'1019.0
2017-Nov-14 20:30N 34°36' E 135°02'816.2
2017-Nov-14 20:00N 34°35' E 134°53'  

Dump ship's entire track history